Regional Weather Roundup
Issued by NWS Albany, NY

Home | Current Version | Previous Version | Text Only | Print | Product List | Glossary On
Versions: 1 2 3 4 5 6 7 8 9 10 11 12 13 14 15 16 17 18 19 20 21 22 23 24 25 26 27 28 29 30 31 32 33 34 35 36 37 38 39 40 41 42 43 44 45 46 47 48 49 50
266
ASUS41 KALY 262010
RWRALY

NEW YORK STATE HOURLY WEATHER ROUNDUP
NATIONAL WEATHER SERVICE ALBANY NY
400 PM EDT THU MAY 26 2016

NOTE: "FAIR" INDICATES FEW OR NO CLOUDS BELOW 12,000 FEET WITH NO
SIGNIFICANT WEATHER AND/OR NO OBSTRUCTIONS TO VISIBILITY.

NYZ032-033-038>043-046>054-057>066-NYZ062>081-082-084-262100-
EAST


CITY           SKY/WX    TMP DP  RH WIND       PRES   REMARKS
ALBANY         PTSUNNY   86  54  33 VRB3      30.02F
GLENS FALLS    FAIR      82  58  43 E6        30.02F
POUGHKEEPSIE   FAIR      90  53  28 SW5       30.01F
NEWBURGH       MOSUNNY   86  54  32 CALM      30.04F
MONTGOMERY     FAIR      88  55  32 SW9       30.02F
WHITE PLAINS   FAIR      86  53  32 S9        30.05S
ISLIP          CLOUDY    83  52  34 S15       30.06S
NEW YORK CITY  PTSUNNY   89  58  34 S15G23    30.03F
CENTRAL PARK   FAIR      87  52  29 VRB3      30.07S
$$

NYZ005>009-017-018-044>046-055-056-262100-
CENTRAL


CITY           SKY/WX    TMP DP  RH WIND       PRES   REMARKS
FULTON         CLOUDY    85  58  39 N3        30.00S
SYRACUSE       CLOUDY    84  53  34 VRB5      29.99F
ROME           PTSUNNY   84  54  35 S8        30.01F
ELMIRA         PTSUNNY   83  55  38 S8        30.02F
BINGHAMTON     PTSUNNY   79  51  37 CALM      30.07F HAZE
MONTICELLO     FAIR      84  52  32 S5        30.09F
$$

NYZ026>034-041>043-087-262100-
NORTH


CITY           SKY/WX    TMP DP  RH WIND       PRES   REMARKS
WATERTOWN      PTSUNNY   81  58  45 NW5       29.99F
FORT DRUM      NOT AVBL
MASSENA        FAIR      77  48  35 NE14      30.02F
SARANAC LAKE   FAIR      79  49  34 VRB6      30.04F
PLATTSBURGH    FAIR      74  49  41 VRB7      30.05F
$$

NYZ001>004-010>016-019>021-085-262100-
WEST


CITY           SKY/WX    TMP DP  RH WIND       PRES   REMARKS
NIAGARA FALLS  FAIR      85  61  44 SW14      29.97F
BUFFALO        FAIR      82  62  50 SW13      29.99F
DUNKIRK        FAIR      79  63  57 VRB5      30.00F
JAMESTOWN      FAIR      79  59  50 SW13      30.04F
WELLSVILLE     FAIR      78  56  46 S14G21    30.09S
ROCHESTER      HVY RAIN  78  62  57 VRB5G18   29.99S
PENN YAN       FAIR      84  56  38 S9        30.02F
$$

             KEY
       WCI = WIND CHILL INDEX
       VSB = VISIBILITY
       HX  = HEAT INDEX
$$




USA.gov is the U.S. government's official web portal to all federal, state and local government web resources and services.